Year,Month,Day,Hour,Minute,Value (Times are PST for temperature in C)
2013,07,16,00,00,18.20
2013,07,16,00,01,18.20
2013,07,16,00,02,18.20
2013,07,16,00,03,18.20
2013,07,16,00,04,18.20
2013,07,16,00,05,18.20
2013,07,16,00,06,18.20
2013,07,16,00,07,18.20
2013,07,16,00,08,18.20
2013,07,16,00,09,18.20
2013,07,16,00,10,18.20
2013,07,16,00,11,18.10
2013,07,16,00,12,18.10
2013,07,16,00,13,18.10
2013,07,16,00,14,18.10
2013,07,16,00,15,18.00
2013,07,16,00,16,18.00
2013,07,16,00,17,18.00
2013,07,16,00,18,17.90
2013,07,16,00,19,17.90
2013,07,16,00,20,17.90
2013,07,16,00,21,17.90
2013,07,16,00,22,17.80
2013,07,16,00,23,17.80
2013,07,16,00,24,17.80
2013,07,16,00,25,17.70
2013,07,16,00,26,17.70
2013,07,16,00,27,17.70
2013,07,16,00,28,17.70
2013,07,16,00,29,17.60
2013,07,16,00,30,17.60
2013,07,16,00,31,17.60
2013,07,16,00,32,17.60
2013,07,16,00,33,17.50
2013,07,16,00,34,17.50
2013,07,16,00,35,17.50
2013,07,16,00,36,17.50
2013,07,16,00,37,17.40
2013,07,16,00,38,17.40
2013,07,16,00,39,17.40
2013,07,16,00,40,17.40
2013,07,16,00,41,17.40
2013,07,16,00,42,17.40
2013,07,16,00,43,17.40
2013,07,16,00,44,17.40
2013,07,16,00,45,17.40
2013,07,16,00,46,17.40
2013,07,16,00,47,17.40
2013,07,16,00,48,17.40
2013,07,16,00,49,17.40
2013,07,16,00,50,17.40
2013,07,16,00,51,17.50
2013,07,16,00,52,17.50
2013,07,16,00,53,17.50
2013,07,16,00,54,17.60
2013,07,16,00,55,17.60
2013,07,16,00,56,17.60
2013,07,16,00,57,17.60
2013,07,16,00,58,17.70
2013,07,16,00,59,17.70
2013,07,16,01,00,17.70
2013,07,16,01,01,17.70
2013,07,16,01,02,17.80
2013,07,16,01,03,17.80
2013,07,16,01,04,17.90
2013,07,16,01,05,17.90
2013,07,16,01,06,18.00
2013,07,16,01,07,18.00
2013,07,16,01,08,18.10
2013,07,16,01,09,18.10
2013,07,16,01,10,18.10
2013,07,16,01,11,18.20
2013,07,16,01,12,18.20
2013,07,16,01,13,18.30
2013,07,16,01,14,18.30
2013,07,16,01,15,18.30
2013,07,16,01,16,18.40
2013,07,16,01,17,18.40
2013,07,16,01,18,18.40
2013,07,16,01,19,18.40
2013,07,16,01,20,18.50
2013,07,16,01,21,18.50
2013,07,16,01,22,18.50
2013,07,16,01,23,18.50
2013,07,16,01,24,18.50
2013,07,16,01,25,18.50
2013,07,16,01,26,18.50
2013,07,16,01,27,18.40
2013,07,16,01,28,18.40
2013,07,16,01,29,18.40
2013,07,16,01,30,18.40
2013,07,16,01,31,18.40
2013,07,16,01,32,18.40
2013,07,16,01,33,18.30
2013,07,16,01,34,18.30
2013,07,16,01,35,18.30
2013,07,16,01,36,18.30
2013,07,16,01,37,18.30
2013,07,16,01,38,18.20
2013,07,16,01,39,18.20
2013,07,16,01,40,18.20
2013,07,16,01,41,18.10
2013,07,16,01,42,18.10
2013,07,16,01,43,18.00
2013,07,16,01,44,17.90
2013,07,16,01,45,17.80
2013,07,16,01,46,17.70
2013,07,16,01,47,17.50
2013,07,16,01,48,17.40
2013,07,16,01,49,17.30
2013,07,16,01,50,17.20
2013,07,16,01,51,17.10
2013,07,16,01,52,17.00
2013,07,16,01,53,16.90
2013,07,16,01,54,16.80
2013,07,16,01,55,16.70
2013,07,16,01,56,16.70
2013,07,16,01,57,16.60
2013,07,16,01,58,16.60
2013,07,16,01,59,16.60
2013,07,16,02,00,16.50
2013,07,16,02,01,16.50
2013,07,16,02,02,16.40
2013,07,16,02,03,16.40
2013,07,16,02,04,16.30
2013,07,16,02,05,16.30
2013,07,16,02,06,16.30
2013,07,16,02,07,16.20
2013,07,16,02,08,16.20
2013,07,16,02,09,16.10
2013,07,16,02,10,16.10
2013,07,16,02,11,16.10
2013,07,16,02,12,16.10
2013,07,16,02,13,16.10
2013,07,16,02,14,16.10
2013,07,16,02,15,16.10
2013,07,16,02,16,16.10
2013,07,16,02,17,16.20
2013,07,16,02,18,16.20
2013,07,16,02,19,16.30
2013,07,16,02,20,16.40
2013,07,16,02,21,16.40
2013,07,16,02,22,16.50
2013,07,16,02,23,16.60
2013,07,16,02,24,16.70
2013,07,16,02,25,16.80
2013,07,16,02,26,16.80
2013,07,16,02,27,16.90
2013,07,16,02,28,16.90
2013,07,16,02,29,16.90
2013,07,16,02,30,16.90
2013,07,16,02,31,16.90
2013,07,16,02,32,16.80
2013,07,16,02,33,16.80
2013,07,16,02,34,16.70
2013,07,16,02,35,16.70
2013,07,16,02,36,16.60
2013,07,16,02,37,16.50
2013,07,16,02,38,16.50
2013,07,16,02,39,16.40
2013,07,16,02,40,16.40
2013,07,16,02,41,16.40
2013,07,16,02,42,16.40
2013,07,16,02,43,16.30
2013,07,16,02,44,16.30
2013,07,16,02,45,16.30
2013,07,16,02,46,16.30
2013,07,16,02,47,16.30
2013,07,16,02,48,16.30
2013,07,16,02,49,16.20
2013,07,16,02,50,16.20
2013,07,16,02,51,16.20
2013,07,16,02,52,16.20
2013,07,16,02,53,16.20
2013,07,16,02,54,16.20
2013,07,16,02,55,16.20
2013,07,16,02,56,16.20
2013,07,16,02,57,16.20
2013,07,16,02,58,16.20
2013,07,16,02,59,16.20
2013,07,16,03,00,16.20
2013,07,16,03,01,16.20
2013,07,16,03,02,16.20
2013,07,16,03,06,16.20
2013,07,16,03,07,16.20
2013,07,16,03,08,16.20
2013,07,16,03,09,16.20
2013,07,16,03,10,16.20
2013,07,16,03,11,16.20
2013,07,16,03,12,16.20
2013,07,16,03,13,16.20
2013,07,16,03,14,16.20
2013,07,16,03,15,16.20
2013,07,16,03,16,16.20
2013,07,16,03,17,16.20
2013,07,16,03,18,16.20
2013,07,16,03,19,16.20
2013,07,16,03,20,16.10
2013,07,16,03,21,16.10
2013,07,16,03,22,16.10
2013,07,16,03,23,16.10
2013,07,16,03,24,16.10
2013,07,16,03,25,16.10
2013,07,16,03,26,16.10
2013,07,16,03,27,16.10
2013,07,16,03,28,16.10
2013,07,16,03,29,16.00
2013,07,16,03,30,16.00
2013,07,16,03,31,16.00
2013,07,16,03,32,15.90
2013,07,16,03,33,15.90
2013,07,16,03,34,15.90
2013,07,16,03,35,15.80
2013,07,16,03,36,15.80
2013,07,16,03,37,15.80
2013,07,16,03,38,15.80
2013,07,16,03,39,15.80
2013,07,16,03,40,15.80
2013,07,16,03,41,15.70
2013,07,16,03,42,15.70
2013,07,16,03,43,15.70
2013,07,16,03,44,15.70
2013,07,16,03,45,15.70
2013,07,16,03,46,15.70
2013,07,16,03,47,15.80
2013,07,16,03,48,15.80
2013,07,16,03,49,15.80
2013,07,16,03,50,15.80
2013,07,16,03,51,15.80
2013,07,16,03,52,15.80
2013,07,16,03,53,15.90
2013,07,16,03,54,15.90
2013,07,16,03,55,16.00
2013,07,16,03,56,16.00
2013,07,16,03,57,16.10
2013,07,16,03,58,16.10
2013,07,16,03,59,16.10
2013,07,16,04,00,16.20
2013,07,16,04,01,16.20
2013,07,16,04,02,16.30
2013,07,16,04,03,16.40
2013,07,16,04,04,16.40
2013,07,16,04,05,16.40
2013,07,16,04,06,16.50
2013,07,16,04,07,16.50
2013,07,16,04,08,16.60
2013,07,16,04,09,16.60
2013,07,16,04,10,16.60
2013,07,16,04,11,16.60
2013,07,16,04,12,16.70
2013,07,16,04,13,16.70
2013,07,16,04,14,16.70
2013,07,16,04,15,16.70
2013,07,16,04,16,16.60
2013,07,16,04,17,16.60
2013,07,16,04,18,16.60
2013,07,16,04,19,16.60
2013,07,16,04,20,16.60
2013,07,16,04,21,16.60
2013,07,16,04,22,16.60
2013,07,16,04,23,16.60
2013,07,16,04,24,16.60
2013,07,16,04,25,16.60
2013,07,16,04,26,16.60
2013,07,16,04,27,16.60
2013,07,16,04,28,16.60
2013,07,16,04,29,16.60
2013,07,16,04,30,16.60
2013,07,16,04,31,16.60
2013,07,16,04,32,16.60
2013,07,16,04,33,16.60
2013,07,16,04,34,16.60
2013,07,16,04,35,16.60
2013,07,16,04,36,16.60
2013,07,16,04,37,16.60
2013,07,16,04,38,16.60
2013,07,16,04,39,16.60
2013,07,16,04,40,16.70
2013,07,16,04,41,16.70
2013,07,16,04,42,16.70
2013,07,16,04,43,16.70
2013,07,16,04,44,16.70
2013,07,16,04,45,16.80
2013,07,16,04,46,16.80
2013,07,16,04,47,16.90
2013,07,16,04,48,17.10
2013,07,16,04,49,17.20
2013,07,16,04,50,17.30
2013,07,16,04,51,17.50
2013,07,16,04,52,17.60
2013,07,16,04,53,17.70
2013,07,16,04,54,17.80
2013,07,16,04,55,17.90
2013,07,16,04,56,18.00
2013,07,16,04,57,18.10
2013,07,16,04,58,18.20
2013,07,16,04,59,18.30
2013,07,16,05,00,18.40
2013,07,16,05,01,18.60
2013,07,16,05,02,18.70
2013,07,16,05,03,18.80
2013,07,16,05,04,18.80
2013,07,16,05,05,18.90
2013,07,16,05,06,18.90
2013,07,16,05,07,19.00
2013,07,16,05,08,19.00
2013,07,16,05,09,19.10
2013,07,16,05,10,19.10
2013,07,16,05,11,19.20
2013,07,16,05,12,19.20
2013,07,16,05,13,19.30
2013,07,16,05,14,19.30
2013,07,16,05,15,19.30
2013,07,16,05,16,19.40
2013,07,16,05,17,19.40
2013,07,16,05,18,19.50
2013,07,16,05,19,19.50
2013,07,16,05,20,19.50
2013,07,16,05,21,19.50
2013,07,16,05,22,19.50
2013,07,16,05,23,19.50
2013,07,16,05,24,19.50
2013,07,16,05,25,19.50
2013,07,16,05,26,19.40
2013,07,16,05,27,19.40
2013,07,16,05,28,19.40
2013,07,16,05,29,19.40
2013,07,16,05,30,19.40
2013,07,16,05,31,19.30
2013,07,16,05,32,19.30
2013,07,16,05,33,19.30
2013,07,16,05,34,19.20
2013,07,16,05,35,19.20
2013,07,16,05,36,19.20
2013,07,16,05,37,19.20
2013,07,16,05,38,19.20
2013,07,16,05,39,19.20
2013,07,16,05,40,19.20
2013,07,16,05,41,19.20
2013,07,16,05,42,19.20
2013,07,16,05,43,19.20
2013,07,16,05,44,19.20
2013,07,16,05,45,19.20
2013,07,16,05,46,19.20
2013,07,16,05,47,19.20
2013,07,16,05,48,19.20
2013,07,16,05,49,19.20
2013,07,16,05,50,19.20
2013,07,16,05,51,19.20
2013,07,16,05,52,19.20
2013,07,16,05,53,19.20
2013,07,16,05,54,19.20
2013,07,16,05,55,19.20
2013,07,16,05,56,19.20
2013,07,16,05,57,19.20
2013,07,16,05,58,19.20
2013,07,16,05,59,19.20
2013,07,16,06,00,19.20
2013,07,16,06,01,19.20
2013,07,16,06,02,19.20
2013,07,16,06,03,19.10
2013,07,16,06,04,19.10
2013,07,16,06,05,19.10
2013,07,16,06,06,19.10
2013,07,16,06,07,19.00
2013,07,16,06,08,19.00
2013,07,16,06,09,18.90
2013,07,16,06,10,18.90
2013,07,16,06,11,18.90
2013,07,16,06,12,18.80
2013,07,16,06,13,18.70
2013,07,16,06,14,18.70
2013,07,16,06,15,18.60
2013,07,16,06,16,18.50
2013,07,16,06,17,18.40
2013,07,16,06,18,18.40
2013,07,16,06,19,18.30
2013,07,16,06,20,18.20
2013,07,16,06,21,18.10
2013,07,16,06,22,18.00
2013,07,16,06,23,17.90
2013,07,16,06,24,17.70
2013,07,16,06,25,17.60
2013,07,16,06,26,17.60
2013,07,16,06,27,17.50
2013,07,16,06,28,17.40
2013,07,16,06,29,17.30
2013,07,16,06,30,17.20
2013,07,16,06,31,17.10
2013,07,16,06,32,17.10
2013,07,16,06,33,17.00
2013,07,16,06,34,16.90
2013,07,16,06,35,16.80
2013,07,16,06,36,16.70
2013,07,16,06,37,16.70
2013,07,16,06,38,16.60
2013,07,16,06,39,16.50
2013,07,16,06,40,16.40
2013,07,16,06,41,16.40
2013,07,16,06,42,16.30
2013,07,16,06,43,16.30
2013,07,16,06,44,16.30
2013,07,16,06,45,16.30
2013,07,16,06,46,16.30
2013,07,16,06,47,16.20
2013,07,16,06,48,16.20
2013,07,16,06,49,16.20
2013,07,16,06,50,16.20
2013,07,16,06,51,16.20
2013,07,16,06,52,16.20
2013,07,16,06,53,16.20
2013,07,16,06,54,16.20
2013,07,16,06,55,16.20
2013,07,16,06,56,16.20
2013,07,16,06,57,16.20
2013,07,16,06,58,16.20
2013,07,16,06,59,16.20
2013,07,16,07,00,16.20
2013,07,16,07,01,16.20
2013,07,16,07,02,16.20
2013,07,16,07,03,16.20
2013,07,16,07,04,16.20
2013,07,16,07,05,16.30
2013,07,16,07,06,16.30
2013,07,16,07,07,16.30
2013,07,16,07,08,16.30
2013,07,16,07,09,16.40
2013,07,16,07,10,16.40
2013,07,16,07,11,16.40
2013,07,16,07,12,16.40
2013,07,16,07,13,16.50
2013,07,16,07,14,16.50
2013,07,16,07,15,16.60
2013,07,16,07,16,16.60
2013,07,16,07,17,16.60
2013,07,16,07,18,16.70
2013,07,16,07,19,16.70
2013,07,16,07,20,16.80
2013,07,16,07,21,16.80
2013,07,16,07,22,16.90
2013,07,16,07,23,17.00
2013,07,16,07,24,17.10
2013,07,16,07,25,17.20
2013,07,16,07,26,17.30
2013,07,16,07,27,17.40
2013,07,16,07,28,17.60
2013,07,16,07,29,17.80
2013,07,16,07,30,17.80
2013,07,16,07,31,18.00
2013,07,16,07,32,18.00
2013,07,16,07,33,18.10
2013,07,16,07,34,18.20
2013,07,16,07,35,18.20
2013,07,16,07,36,18.30
2013,07,16,07,37,18.40
2013,07,16,07,38,18.50
2013,07,16,07,39,18.70
2013,07,16,07,40,18.90
2013,07,16,07,41,19.10
2013,07,16,07,42,19.30
2013,07,16,07,43,19.50
2013,07,16,07,44,19.60
2013,07,16,07,45,19.80
2013,07,16,07,46,19.90
2013,07,16,07,47,20.10
2013,07,16,07,48,20.20
2013,07,16,07,49,20.30
2013,07,16,07,50,20.30
2013,07,16,07,51,20.40
2013,07,16,07,52,20.50
2013,07,16,07,53,20.60
2013,07,16,07,54,20.60
2013,07,16,07,55,20.70
2013,07,16,07,56,20.70
2013,07,16,07,57,20.80
2013,07,16,07,58,20.80
2013,07,16,07,59,20.90
2013,07,16,08,00,20.90
2013,07,16,08,01,21.00
2013,07,16,08,02,21.00
2013,07,16,08,03,21.10
2013,07,16,08,04,21.10
2013,07,16,08,05,21.10
2013,07,16,08,06,21.20
2013,07,16,08,07,21.20
2013,07,16,08,08,21.20
2013,07,16,08,09,21.30
2013,07,16,08,10,21.30
2013,07,16,08,11,21.30
2013,07,16,08,12,21.40
2013,07,16,08,13,21.40
2013,07,16,08,14,21.40
2013,07,16,08,15,21.40
2013,07,16,08,16,21.40
2013,07,16,08,17,21.50
2013,07,16,08,18,21.50
2013,07,16,08,19,21.50
2013,07,16,08,20,21.60
2013,07,16,08,21,21.60
2013,07,16,08,22,21.60
2013,07,16,08,23,21.60
2013,07,16,08,24,21.60
2013,07,16,08,25,21.70
2013,07,16,08,26,21.70
2013,07,16,08,27,21.70
2013,07,16,08,28,21.70
2013,07,16,08,29,21.80
2013,07,16,08,30,21.80
2013,07,16,08,31,21.80
2013,07,16,08,32,21.80
2013,07,16,08,33,21.80
2013,07,16,08,34,21.80
2013,07,16,08,35,21.90
2013,07,16,08,36,21.90
2013,07,16,08,37,21.90
2013,07,16,08,38,21.90
2013,07,16,08,39,21.90
2013,07,16,08,40,22.00
2013,07,16,08,41,22.00
2013,07,16,08,42,22.00
2013,07,16,08,43,22.10
2013,07,16,08,44,22.10
2013,07,16,08,45,22.10
2013,07,16,08,46,22.10
2013,07,16,08,47,22.20
2013,07,16,08,48,22.20
2013,07,16,08,49,22.20
2013,07,16,08,50,22.30
2013,07,16,08,51,22.30
2013,07,16,08,52,22.30
2013,07,16,08,53,22.30
2013,07,16,08,54,22.30
2013,07,16,08,55,22.30
2013,07,16,08,56,22.40
2013,07,16,08,57,22.40
2013,07,16,08,58,22.50
2013,07,16,08,59,22.50
2013,07,16,09,00,22.60
2013,07,16,09,01,22.60
2013,07,16,09,02,22.70
2013,07,16,09,03,22.70
2013,07,16,09,04,22.80
2013,07,16,09,05,22.80
2013,07,16,09,06,22.80
2013,07,16,09,07,22.80
2013,07,16,09,08,22.90
2013,07,16,09,09,22.90
2013,07,16,09,10,22.90
2013,07,16,09,11,22.90
2013,07,16,09,12,23.00
2013,07,16,09,13,23.00
2013,07,16,09,14,23.00
2013,07,16,09,15,23.00
2013,07,16,09,16,23.10
2013,07,16,09,17,23.10
2013,07,16,09,18,23.10
2013,07,16,09,19,23.20
2013,07,16,09,20,23.20
2013,07,16,09,21,23.20
2013,07,16,09,22,23.20
2013,07,16,09,23,23.20
2013,07,16,09,24,23.20
2013,07,16,09,25,23.20
2013,07,16,09,26,23.30
2013,07,16,09,27,23.20
2013,07,16,09,28,23.20
2013,07,16,09,29,23.20
2013,07,16,09,30,23.30
2013,07,16,09,31,23.30
2013,07,16,09,32,23.30
2013,07,16,09,33,23.30
2013,07,16,09,34,23.30
2013,07,16,09,35,23.30
2013,07,16,09,36,23.30
2013,07,16,09,37,23.40
2013,07,16,09,38,23.40
2013,07,16,09,39,23.40
2013,07,16,09,40,23.50
2013,07,16,09,41,23.50
2013,07,16,09,42,23.60
2013,07,16,09,43,23.70
2013,07,16,09,44,23.70
2013,07,16,09,45,23.70
2013,07,16,09,46,23.70
2013,07,16,09,47,23.80
2013,07,16,09,48,23.80
2013,07,16,09,49,23.80
2013,07,16,09,50,23.80
2013,07,16,09,51,23.80
2013,07,16,09,52,23.80
2013,07,16,09,53,23.80
2013,07,16,09,54,23.80
2013,07,16,09,55,23.80
2013,07,16,09,56,23.90
2013,07,16,09,57,23.90
2013,07,16,09,58,23.90
2013,07,16,09,59,23.90
2013,07,16,10,00,23.90
2013,07,16,10,01,23.90
2013,07,16,10,02,24.00
2013,07,16,10,03,24.00
2013,07,16,10,04,24.10
2013,07,16,10,05,24.10
2013,07,16,10,06,24.10
2013,07,16,10,07,24.10
2013,07,16,10,08,24.20
2013,07,16,10,09,24.20
2013,07,16,10,10,24.20
2013,07,16,10,11,24.20
2013,07,16,10,12,24.30
2013,07,16,10,13,24.40
2013,07,16,10,14,24.40
2013,07,16,10,15,24.50
2013,07,16,10,16,24.50
2013,07,16,10,17,24.50
2013,07,16,10,18,24.50
2013,07,16,10,19,24.50
2013,07,16,10,20,24.50
2013,07,16,10,21,24.60
2013,07,16,10,22,24.60
2013,07,16,10,23,24.60
2013,07,16,10,24,24.60
2013,07,16,10,25,24.60
2013,07,16,10,26,24.70
2013,07,16,10,27,24.70
2013,07,16,10,28,24.70
2013,07,16,10,29,24.80
2013,07,16,10,30,24.80
2013,07,16,10,31,24.90
2013,07,16,10,32,24.90
2013,07,16,10,33,25.00
2013,07,16,10,34,25.00
2013,07,16,10,35,25.00
2013,07,16,10,36,25.10
2013,07,16,10,37,25.00
2013,07,16,10,38,25.00
2013,07,16,10,39,25.00
2013,07,16,10,40,25.00
2013,07,16,10,41,25.00
2013,07,16,10,42,25.00
2013,07,16,10,43,25.00
2013,07,16,10,44,25.10
2013,07,16,10,45,25.10
2013,07,16,10,46,25.10
2013,07,16,10,47,25.10
2013,07,16,10,48,25.10
2013,07,16,10,49,25.10
2013,07,16,10,50,25.20
2013,07,16,10,51,25.30
2013,07,16,10,52,25.30
2013,07,16,10,53,25.30
2013,07,16,10,54,25.30
2013,07,16,10,55,25.30
2013,07,16,10,56,25.30
2013,07,16,10,57,25.30
2013,07,16,10,58,25.30
2013,07,16,10,59,25.30
2013,07,16,11,00,25.30
2013,07,16,11,01,25.40
2013,07,16,11,02,25.50
2013,07,16,11,03,25.50
2013,07,16,11,04,25.60
2013,07,16,11,05,25.60
2013,07,16,11,06,25.70
2013,07,16,11,07,25.80
2013,07,16,11,08,25.80
2013,07,16,11,09,25.80
2013,07,16,11,10,25.80
2013,07,16,11,11,25.80
2013,07,16,11,12,25.90
2013,07,16,11,13,25.90
2013,07,16,11,14,25.90
2013,07,16,11,15,25.90
2013,07,16,11,16,25.90
2013,07,16,11,17,25.90
2013,07,16,11,18,26.00
2013,07,16,11,19,26.00
2013,07,16,11,20,26.00
2013,07,16,11,21,26.10
2013,07,16,11,22,26.10
2013,07,16,11,23,26.10
2013,07,16,11,24,26.10
2013,07,16,11,25,26.10
2013,07,16,11,26,26.20
2013,07,16,11,27,26.20
2013,07,16,11,28,26.30
2013,07,16,11,29,26.30
2013,07,16,11,30,26.40
2013,07,16,11,31,26.40
2013,07,16,11,32,26.40
2013,07,16,11,33,26.40
2013,07,16,11,34,26.40
2013,07,16,11,35,26.40
2013,07,16,11,36,26.30
2013,07,16,11,37,26.30
2013,07,16,11,38,26.30
2013,07,16,11,39,26.30
2013,07,16,11,40,26.20
2013,07,16,11,41,26.20
2013,07,16,11,42,26.30
2013,07,16,11,43,26.30
2013,07,16,11,44,26.30
2013,07,16,11,45,26.40
2013,07,16,11,46,26.40
2013,07,16,11,47,26.50
2013,07,16,11,48,26.50
2013,07,16,11,49,26.50
2013,07,16,11,50,26.60
2013,07,16,11,51,26.60
2013,07,16,11,52,26.80
2013,07,16,11,53,26.80
2013,07,16,11,54,26.90
2013,07,16,11,55,27.00
2013,07,16,11,56,27.10
2013,07,16,11,57,27.10
2013,07,16,11,58,27.10
2013,07,16,11,59,27.00
2013,07,16,12,00,27.00
2013,07,16,12,01,27.00
2013,07,16,12,02,27.10
2013,07,16,12,03,27.20
2013,07,16,12,04,27.10
2013,07,16,12,05,27.10
2013,07,16,12,06,27.10
2013,07,16,12,07,27.10
2013,07,16,12,08,27.00
2013,07,16,12,09,26.90
2013,07,16,12,10,26.90
2013,07,16,12,11,26.90
2013,07,16,12,12,26.90
2013,07,16,12,13,26.80
2013,07,16,12,14,26.80
2013,07,16,12,15,26.90
2013,07,16,12,16,26.90
2013,07,16,12,17,26.90
2013,07,16,12,18,27.00
2013,07,16,12,19,27.00
2013,07,16,12,20,27.10
2013,07,16,12,21,27.10
2013,07,16,12,22,27.00
2013,07,16,12,23,26.90
2013,07,16,12,24,26.90
2013,07,16,12,25,26.90
2013,07,16,12,26,26.90
2013,07,16,12,27,26.90
2013,07,16,12,28,27.00
2013,07,16,12,29,27.00
2013,07,16,12,30,27.10
2013,07,16,12,31,27.10
2013,07,16,12,32,27.20
2013,07,16,12,33,27.20
2013,07,16,12,34,27.30
2013,07,16,12,35,27.30
2013,07,16,12,36,27.40
2013,07,16,12,37,27.50
2013,07,16,12,38,27.50
2013,07,16,12,39,27.50
2013,07,16,12,40,27.50
2013,07,16,12,41,27.40
2013,07,16,12,42,27.40
2013,07,16,12,43,27.30
2013,07,16,12,44,27.20
2013,07,16,12,45,27.20
2013,07,16,12,46,27.20
2013,07,16,12,47,27.10
2013,07,16,12,48,27.20
2013,07,16,12,49,27.10
2013,07,16,12,50,27.10
2013,07,16,12,51,27.10
2013,07,16,12,52,27.00
2013,07,16,12,53,27.00
2013,07,16,12,54,26.90
2013,07,16,12,55,26.90
2013,07,16,12,56,26.90
2013,07,16,12,57,26.90
2013,07,16,12,58,26.90
2013,07,16,12,59,26.90
2013,07,16,13,00,26.90
2013,07,16,13,01,27.00
2013,07,16,13,02,27.00
2013,07,16,13,03,27.10
2013,07,16,13,04,27.10
2013,07,16,13,05,27.10
2013,07,16,13,06,27.10
2013,07,16,13,07,27.10
2013,07,16,13,08,27.10
2013,07,16,13,09,27.10
2013,07,16,13,10,27.10
2013,07,16,13,11,27.10
2013,07,16,13,12,27.10
2013,07,16,13,13,27.00
2013,07,16,13,14,27.00
2013,07,16,13,15,27.00
2013,07,16,13,16,27.00
2013,07,16,13,17,27.10
2013,07,16,13,18,27.10
2013,07,16,13,19,27.10
2013,07,16,13,20,27.10
2013,07,16,13,21,27.10
2013,07,16,13,22,27.10
2013,07,16,13,23,27.10
2013,07,16,13,24,27.10
2013,07,16,13,25,27.10
2013,07,16,13,26,27.10
2013,07,16,13,27,27.20
2013,07,16,13,28,27.20
2013,07,16,13,29,27.30
2013,07,16,13,30,27.30
2013,07,16,13,31,27.30
2013,07,16,13,32,27.20
2013,07,16,13,33,27.30
2013,07,16,13,34,27.30
2013,07,16,13,35,27.30
2013,07,16,13,36,27.40
2013,07,16,13,37,27.40
2013,07,16,13,38,27.40
2013,07,16,13,39,27.40
2013,07,16,13,40,27.40
2013,07,16,13,41,27.30
2013,07,16,13,42,27.30
2013,07,16,13,43,27.30
2013,07,16,13,44,27.30
2013,07,16,13,45,27.30
2013,07,16,13,46,27.30
2013,07,16,13,47,27.30
2013,07,16,13,48,27.40
2013,07,16,13,49,27.40
2013,07,16,13,50,27.30
2013,07,16,13,51,27.30
2013,07,16,13,52,27.30
2013,07,16,13,53,27.30
2013,07,16,13,54,27.40
2013,07,16,13,55,27.40
2013,07,16,13,56,27.40
2013,07,16,13,57,27.40
2013,07,16,13,58,27.50
2013,07,16,13,59,27.50
2013,07,16,14,00,27.50
2013,07,16,14,01,27.50
2013,07,16,14,02,27.50
2013,07,16,14,03,27.60
2013,07,16,14,04,27.60
2013,07,16,14,05,27.60
2013,07,16,14,06,27.60
2013,07,16,14,07,27.60
2013,07,16,14,08,27.50
2013,07,16,14,09,27.50
2013,07,16,14,10,27.50
2013,07,16,14,11,27.50
2013,07,16,14,12,27.50
2013,07,16,14,13,27.60
2013,07,16,14,14,27.60
2013,07,16,14,15,27.70
2013,07,16,14,16,27.70
2013,07,16,14,17,27.70
2013,07,16,14,18,27.70
2013,07,16,14,19,27.70
2013,07,16,14,20,27.70
2013,07,16,14,21,27.70
2013,07,16,14,22,27.60
2013,07,16,14,23,27.60
2013,07,16,14,24,27.50
2013,07,16,14,25,27.40
2013,07,16,14,26,27.40
2013,07,16,14,27,27.50
2013,07,16,14,28,27.50
2013,07,16,14,29,27.50
2013,07,16,14,30,27.40
2013,07,16,14,31,27.40
2013,07,16,14,32,27.30
2013,07,16,14,33,27.30
2013,07,16,14,34,27.30
2013,07,16,14,35,27.30
2013,07,16,14,36,27.30
2013,07,16,14,37,27.20
2013,07,16,14,38,27.20
2013,07,16,14,39,27.20
2013,07,16,14,40,27.20
2013,07,16,14,41,27.30
2013,07,16,14,42,27.30
2013,07,16,14,43,27.30
2013,07,16,14,44,27.30
2013,07,16,14,45,27.30
2013,07,16,14,46,27.30
2013,07,16,14,47,27.30
2013,07,16,14,48,27.30
2013,07,16,14,49,27.30
2013,07,16,14,50,27.30
2013,07,16,14,51,27.30
2013,07,16,14,52,27.40
2013,07,16,14,53,27.40
2013,07,16,14,54,27.40
2013,07,16,14,55,27.40
2013,07,16,14,56,27.30
2013,07,16,14,57,27.30
2013,07,16,14,58,27.40
2013,07,16,14,59,27.40
2013,07,16,15,00,27.40
2013,07,16,15,01,27.40
2013,07,16,15,02,27.40
2013,07,16,15,03,27.30
2013,07,16,15,04,27.20
2013,07,16,15,05,26.90
2013,07,16,15,06,26.70
2013,07,16,15,07,26.50
2013,07,16,15,08,26.20
2013,07,16,15,09,26.00
2013,07,16,15,10,25.80
2013,07,16,15,11,25.70
2013,07,16,15,12,25.50
2013,07,16,15,13,25.40
2013,07,16,15,14,25.30
2013,07,16,15,15,25.30
2013,07,16,15,16,25.30
2013,07,16,15,17,25.30
2013,07,16,15,18,25.30
2013,07,16,15,19,25.30
2013,07,16,15,20,25.40
2013,07,16,15,21,25.40
2013,07,16,15,22,25.50
2013,07,16,15,23,25.50
2013,07,16,15,24,25.60
2013,07,16,15,25,25.70
2013,07,16,15,26,25.90
2013,07,16,15,27,26.10
2013,07,16,15,28,26.30
2013,07,16,15,29,26.60
2013,07,16,15,30,26.80
2013,07,16,15,31,27.10
2013,07,16,15,32,27.30
2013,07,16,15,33,27.40
2013,07,16,15,34,27.60
2013,07,16,15,35,27.80
2013,07,16,15,36,27.90
2013,07,16,15,37,28.10
2013,07,16,15,38,28.20
2013,07,16,15,39,28.20
2013,07,16,15,40,28.20
2013,07,16,15,41,28.10
2013,07,16,15,42,27.90
2013,07,16,15,43,27.70
2013,07,16,15,44,27.60
2013,07,16,15,45,27.40
2013,07,16,15,46,27.30
2013,07,16,15,47,27.10
2013,07,16,15,48,27.00
2013,07,16,15,49,26.90
2013,07,16,15,50,26.90
2013,07,16,15,51,26.90
2013,07,16,15,52,27.00
2013,07,16,15,53,27.10
2013,07,16,15,54,27.20
2013,07,16,15,55,27.20
2013,07,16,15,56,27.30
2013,07,16,15,57,27.30
2013,07,16,15,58,27.30
2013,07,16,15,59,27.30
2013,07,16,16,00,27.30
2013,07,16,16,01,27.40
2013,07,16,16,02,27.40
2013,07,16,16,03,27.50
2013,07,16,16,04,27.60
2013,07,16,16,05,27.80
2013,07,16,16,06,27.80
2013,07,16,16,07,27.80
2013,07,16,16,08,27.70
2013,07,16,16,09,27.70
2013,07,16,16,10,27.70
2013,07,16,16,11,27.70
2013,07,16,16,12,27.80
2013,07,16,16,13,27.80
2013,07,16,16,14,27.70
2013,07,16,16,15,27.70
2013,07,16,16,16,27.60
2013,07,16,16,17,27.50
2013,07,16,16,18,27.50
2013,07,16,16,19,27.40
2013,07,16,16,20,27.40
2013,07,16,16,21,27.40
2013,07,16,16,22,27.40
2013,07,16,16,23,27.40
2013,07,16,16,24,27.40
2013,07,16,16,25,27.50
2013,07,16,16,26,27.60
2013,07,16,16,27,27.70
2013,07,16,16,28,27.80
2013,07,16,16,29,28.00
2013,07,16,16,30,28.10
2013,07,16,16,31,28.20
2013,07,16,16,32,28.30
2013,07,16,16,33,28.40
2013,07,16,16,34,28.50
2013,07,16,16,35,28.50
2013,07,16,16,36,28.60
2013,07,16,16,37,28.60
2013,07,16,16,38,28.60
2013,07,16,16,39,28.70
2013,07,16,16,40,28.70
2013,07,16,16,41,28.70
2013,07,16,16,42,28.70
2013,07,16,16,43,28.70
2013,07,16,16,44,28.60
2013,07,16,16,45,28.60
2013,07,16,16,46,28.60
2013,07,16,16,47,28.50
2013,07,16,16,48,28.50
2013,07,16,16,49,28.50
2013,07,16,16,50,28.50
2013,07,16,16,51,28.50
2013,07,16,16,52,28.50
2013,07,16,16,53,28.40
2013,07,16,16,54,28.40
2013,07,16,16,55,28.40
2013,07,16,16,56,28.40
2013,07,16,16,57,28.30
2013,07,16,16,58,28.30
2013,07,16,16,59,28.20
2013,07,16,17,00,28.20
2013,07,16,17,01,28.10
2013,07,16,17,02,28.00
2013,07,16,17,03,27.90
2013,07,16,17,04,27.90
2013,07,16,17,05,27.80
2013,07,16,17,06,27.70
2013,07,16,17,07,27.70
2013,07,16,17,08,27.60
2013,07,16,17,09,27.50
2013,07,16,17,10,27.50
2013,07,16,17,11,27.40
2013,07,16,17,12,27.40
2013,07,16,17,13,27.30
2013,07,16,17,14,27.30
2013,07,16,17,15,27.30
2013,07,16,17,16,27.20
2013,07,16,17,17,27.20
2013,07,16,17,18,27.10
2013,07,16,17,19,27.10
2013,07,16,17,20,27.10
2013,07,16,17,21,27.00
2013,07,16,17,22,27.00